CST,Max TemperatureF,Mean TemperatureF,Min TemperatureF,Max Dew PointF,MeanDew PointF,Min DewpointF,Max Humidity, Mean Humidity, Min Humidity, Max Sea Level PressureIn, Mean Sea Level PressureIn, Min Sea Level PressureIn, Max VisibilityMiles, Mean VisibilityMiles, Min VisibilityMiles, Max Wind SpeedMPH, Mean Wind SpeedMPH, Max Gust SpeedMPH,PrecipitationIn, CloudCover, Events, WindDirDegrees
2012-11-1,54,41,28,34,30,24,85,66,46,30.03,29.96,29.91,10,10,10,20,7,24,0.00,2,,333
2012-11-2,46,35,23,30,26,20,88,71,53,30.15,30.10,30.04,10,10,10,13,5,15,0.00,1,,67
2012-11-3,49,41,32,33,30,27,82,64,46,30.24,30.19,30.12,10,10,8,9,2,12,0.00,6,,107
2012-11-4,50,44,37,37,35,32,92,74,56,30.25,30.20,30.13,10,8,5,14,7,18,0.05,8,Rain,146
2012-11-5,47,37,27,38,33,25,92,73,53,30.19,30.15,30.09,10,6,3,14,5,16,0.03,6,Rain,115
2012-11-6,48,38,28,43,37,29,100,83,65,30.06,29.91,29.82,10,7,2,22,11,26,0.12,8,Rain,251
2012-11-7,45,41,37,36,34,31,92,77,62,30.15,30.09,29.93,10,10,10,16,5,21,0.00,7,,341
2012-11-8,54,44,34,38,35,30,89,72,54,30.15,30.05,29.97,10,10,10,21,11,26,0.00,0,,161
2012-11-9,55,44,33,45,40,32,100,83,66,30.01,29.94,29.86,10,8,3,18,9,21,0.00,3,,106
2012-11-10,76,63,50,56,51,45,96,71,46,29.85,29.69,29.61,10,9,7,26,15,35,0.00,2,,154
2012-11-11,64,44,23,56,36,13,100,76,52,30.07,29.80,29.64,10,8,3,23,15,32,0.81,7,Rain,284
2012-11-12,32,26,19,19,16,13,84,69,54,30.39,30.21,30.09,10,10,10,25,12,33,0.00,4,,268
2012-11-13,44,30,15,26,20,13,84,63,41,30.49,30.41,30.35,10,9,2,18,7,23,0.00,1,,174
2012-11-14,55,45,35,32,28,25,75,54,32,30.38,30.32,30.27,10,10,10,18,10,24,0.00,1,,180
2012-11-15,56,44,31,35,31,28,89,66,43,30.41,30.30,30.25,10,10,10,15,8,18,0.00,1,,250
2012-11-16,51,37,22,32,28,21,96,72,48,30.49,30.44,30.40,10,9,7,10,3,13,0.00,0,,229
2012-11-17,59,44,28,36,32,27,92,66,40,30.43,30.37,30.32,10,8,4,20,11,28,0.00,0,,153
2012-11-18,57,47,36,34,32,30,76,59,41,30.31,30.24,30.18,10,9,6,17,12,23,0.00,2,,159
2012-11-19,56,46,35,46,42,35,100,75,50,30.21,30.09,30.04,10,7,0,15,8,18,0.13,4,Fog-Rain,144
2012-11-20,57,43,28,44,36,30,100,79,57,30.19,30.14,30.05,9,2,0,10,3,12,0.00,1,Fog,342
2012-11-21,68,49,30,44,37,30,100,70,39,30.16,30.06,29.89,10,7,0,22,11,26,0.00,0,Fog,164
2012-11-22,65,50,35,46,37,24,70,57,43,30.03,29.85,29.69,10,10,10,31,17,38,0.00,2,,243
2012-11-23,35,27,19,23,14,10,73,62,50,30.38,30.26,30.05,10,10,10,33,19,44,T,4,,309
2012-11-24,29,21,12,20,15,9,92,78,63,30.36,30.18,29.88,10,10,10,18,7,23,0.00,4,,224
2012-11-25,39,30,20,23,21,17,84,69,54,30.17,30.00,29.86,10,10,10,22,8,24,0.00,0,,324
2012-11-26,28,20,11,21,10,5,81,64,46,30.47,30.36,30.19,10,10,10,22,9,26,0.00,2,,321
2012-11-27,33,21,8,15,11,4,80,62,43,30.45,30.33,30.21,10,10,10,16,7,22,0.00,3,,214
2012-11-28,42,29,15,24,19,13,92,68,43,30.42,30.31,30.18,10,10,7,12,5,14,0.00,0,,217
2012-11-29,49,38,26,32,28,23,92,73,54,30.18,30.07,30.00,10,9,7,12,5,14,0.00,0,,146
2012-11-30,47,36,24,36,29,23,100,83,65,30.14,30.09,30.02,7,4,1,14,7,17,0.00,0,,77